Regional Weather Roundup
Issued by NWS

Home | Current Version | Previous Version | Graphics & Text | Print | Product List | Glossary On
Versions: 1 2 3 4 5 6 7 8 9 10 11 12 13 14 15 16 17 18 19 20 21 22 23 24 25 26 27 28 29 30 31 32 33 34 35 36 37 38 39 40 41 42 43 44 45 46 47 48 49 50
000
ASUS43 KMPX 041610
RWRMN
WEATHER ROUNDUP FOR MINNESOTA
NATIONAL WEATHER SERVICE TWIN CITIES/CHANHASSEN MN
1100 AM CDT TUE AUG 04 2015


NOTE: "FAIR" INDICATES FEW OR NO CLOUDS BELOW 12,000 FEET WITH NO
SIGNIFICANT WEATHER AND/OR OBSTRUCTIONS TO VISIBILITY. N/A MEANS
CURRENT SKY AND/OR WEATHER CONDITIONS ARE NOT AVAILABLE.

MNZ060>063-068>070-041700-
   Twin Cities Metro

CITY           SKY/WX    TMP DP  RH WIND       PRES   REMARKS
TWIN CITIES    MOSUNNY   75  52  44 NW10      30.01S
ST PAUL        SUNNY     76  51  41 W12G18    30.01S
CRYSTAL        SUNNY     76  52  43 W10       30.00S
BLAINE         SUNNY     75  54  46 W10         N/A
LAKEVILLE      MOSUNNY   73  55  53 W5        30.02S
EDEN PRAIRIE   MOSUNNY   74  54  49 W9        30.01S
SOUTH ST PAUL  MOSUNNY   74  51  44 W6        30.01R
LAKE ELMO      FAIR      73  54  49 W8        30.02S
$$
MNZ001>005-007-008-013>017-022>024-027-028-041700-
   Northwest Minnesota

CITY           SKY/WX    TMP DP  RH WIND       PRES   REMARKS
BEMIDJI        PTSUNNY   68  53  59 N9        30.01S
HALLOCK        SUNNY     66  52  59 NE6       30.03S
ROSEAU         MOSUNNY   64  54  68 NW3       30.03S
WARROAD        CLOUDY    63  54  72 E6        30.04S
THIEF RVR FALL SUNNY     66  54  63 N8        30.03S
CROOKSTON      SUNNY     70  55  60 N3        30.04R
FOSSTON        SUNNY     70  52  52 CALM      30.04R
DETROIT LAKES  SUNNY     70  50  49 N6        30.04S
MOORHEAD       SUNNY     70  54  56 N6        30.03S
PARK RAPIDS    SUNNY     70  50  49 N9        30.02S
MAHNOMEN       FAIR      66  54  65 CALM      30.03S
$$
MNZ006-009>011-018-025>026-041700-
   North Central Minnesota

CITY           SKY/WX    TMP DP  RH WIND       PRES   REMARKS
BAUDETTE       PTSUNNY   64  51  62 N10       30.02R
FLAG ISLAND    CLOUDY    57  48  72 N7        30.03R
INTL FALLS     CLOUDY    59  50  72 N8        30.02R
WASKISH        MOSUNNY   66  54  63 NW5       30.01S
BIG FORK       MOSUNNY   64  52  63 N3        30.00S
LONGVILLE      SUNNY     70  54  56 W7        30.01R
GRAND RAPIDS   PTSUNNY   66  52  59 NW7       30.01R
CRANE LAKE     CLOUDY    55  52  88 NW5       30.02R
ORR            CLOUDY    61  52  72 CALM      29.98R
COOK           PTSUNNY   63  52  67 W8        30.00S
WALKER         FAIR      66  52  59 NW6       30.02R
$$
MNZ012-019>021-037-041700-
   Northeast Minnesota

CITY           SKY/WX    TMP DP  RH WIND       PRES   REMARKS
DULUTH         CLOUDY    67  52  58 NW7       29.98S
ELY            CLOUDY    57  50  77 CALM      29.99R
HIBBING        PTSUNNY   66  53  63 NW9       29.99S
EVELETH        PTSUNNY   63  52  67 NW7       30.00S
DULUTH HARBOR  PTSUNNY   70  54  56 NW10      29.97S
TWO HARBORS    PTSUNNY   72  55  56 N5        29.96S
SILVER BAY     CLOUDY    66  54  63 NW3       29.96R
GRAND MARAIS     N/A     57  52  83 CALM      29.95R
G MARAIS ARPRT CLOUDY    57  46  67 NW6       29.98R
$$
MNZ029>031-032-039>041-046>048-054>057-064-041700-
   West Central Minnesota

CITY           SKY/WX    TMP DP  RH WIND       PRES   REMARKS
FERGUS FALLS   SUNNY     73  52  46 NW9       30.01F
WHEATON        SUNNY     73  55  53 CALM      30.03S
MORRIS         SUNNY     75  55  50 NW6       30.01F
ALEXANDRIA     SUNNY     74  53  48 W12G21    30.04F
ELBOW LAKE     FAIR      72  52  49 NW6       30.02F
WADENA         SUNNY     72  52  49 W6        30.02R
GLENWOOD       SUNNY     72  55  56 W9        30.03F
APPLETON       MOSUNNY   75  54  46 W3        30.00F
BENSON         MOSUNNY   75  55  50 CALM      30.02F
ORTONVILLE     MOSUNNY   75  54  46 CALM      30.00F
MADISON        PTSUNNY   75  54  46 SW3       30.01F
WILLMAR        FAIR      73  55  53 W5        30.04F
$$
MNZ033>034-036-042>043-049>051-058-059-041700-
   Central Minnesota

CITY           SKY/WX    TMP DP  RH WIND       PRES   REMARKS
ST CLOUD       SUNNY     75  52  44 NW12      30.01S
SAUK CENTRE    FAIR      72  55  54 W12G17    30.03F
PAYNESVILLE    SUNNY     72  51  47 SW12      30.03F
AITKIN         SUNNY     72  55  56 NW3       29.99F
PINE RIVER     SUNNY     70  52  52 NW6       30.04S
BRAINERD       SUNNY     71  50  47 NW7       30.02S
STAPLES        SUNNY     72  48  43 NW8       30.02S
LONG PRAIRIE   FAIR      72  50  46 W10G16    30.03S
LITCHFIELD     MOSUNNY   73  57  56 W8        30.03F
BUFFALO        SUNNY     72  54  53 SW5       30.03S
MAPLE LAKE     SUNNY     73  57  56 W7        30.03F
$$
MNZ037-044-045-052-053-041700-
   East Central Minnesota

CITY           SKY/WX    TMP DP  RH WIND       PRES   REMARKS
PRINCETON      SUNNY     75  55  50 W10       30.01S
MORA           SUNNY     70  52  52 W9        30.02S
CAMBRIDGE      SUNNY     75  55  50 W9        29.99S
RUSH CITY      SUNNY     73  54  51 NW6       30.01S
MOOSE LAKE     MOSUNNY   70  54  56 W5        29.98F
HINCKLEY       FAIR      70  54  56 W7        30.00F
CLOQUET        MOSUNNY   70  52  52 NW8       29.99S
MCGREGOR       SUNNY     70  54  56 W6        30.01S
$$
MNZ071>073-080-081-089-090-097-098-041700-
   Southwest Minnesota

CITY           SKY/WX    TMP DP  RH WIND       PRES   REMARKS
MONTEVIDEO     MOSUNNY   79  63  57 SW5       30.03F
GRANITE FALLS  PTSUNNY   74  58  56 S3        30.03F
CANBY          PTSUNNY   74  51  44 S5        30.02F
MARSHALL       PTSUNNY   75  52  43 S9        30.04F
REDWOOD FALLS  PTSUNNY   75  52  44 SW8       30.02F
OLIVIA         PTSUNNY   72  55  56 SW5       30.01F
PIPESTONE      CLOUDY    70  54  56 SE8       30.03F
WINDOM         CLOUDY    73  52  46 CALM      30.04F
WORTHINGTON    PTSUNNY   70  54  56 E6        30.04F
JACKSON        CLOUDY    73  50  43 E5        30.05F
TRACY          CLOUDY    73  55  53 S7        30.04S
SLAYTON        CLOUDY    70  56  61 CALM      30.05F
$$
MNZ065>067-074>077-082>085-091>093-041700-
   South Central Minnesota

CITY           SKY/WX    TMP DP  RH WIND       PRES   REMARKS
MANKATO        PTSUNNY   72  54  53 W6        30.04F
NEW ULM        PTSUNNY   72  54  53 W5        30.03F
ST JAMES       CLOUDY    73  55  53 CALM      30.04F
FAIRMONT       CLOUDY    73  48  40 CALM      30.04F
GLENCOE        MOSUNNY   74  57  55 W7        30.02F
FARIBAULT      PTSUNNY   73  61  64 SW7       30.04S
OWATONNA       PTSUNNY   72  54  53 W5        30.04F
WASECA         PTSUNNY   72  55  56 W5        30.05F
ALBERT LEA     CLOUDY    72  52  49 N3        30.04F
$$
MNZ078>079-086>088-094>096-041700-
   Southeast Minnesota

CITY           SKY/WX    TMP DP  RH WIND       PRES   REMARKS
ROCHESTER      PTSUNNY   71  58  63 W7        30.05S
RED WING       MOSUNNY   75  50  41 NW7       30.00S
STANTON        MOSUNNY   74  54  49 W7        30.02R
DODGE CENTER   PTSUNNY   70  55  60 W7        30.05S
WINONA         MOSUNNY   73  54  49 W6        30.02R
AUSTIN         CLOUDY    72  55  56 NW5       30.04F
PRESTON        PTSUNNY   70  52  52 CALM      30.05R
$$
ABBREVIATIONS USED IN REMARKS
   TC - TEMPERATURES IN CELSIUS
  WCI - WIND CHILL INDEX
   HX - HEAT INDEX
  VSB - VISIBILITY
$$


USA.gov is the U.S. government's official web portal to all federal, state and local government web resources and services.